,,Stat6,,Stat2,,Stat8,,Stat9,,Stat10,,Wind1,,Wind1,
time,status,PA1M_AVG,status,PR1M_SUM,status,RH1M_AVG,status,SR1M_AVG,status,TA1M_AVG,status,W1dAve1m,status,W1sAve1m,
2006-04-04, 00:00:00,VALID,918.145,VALID,0,VALID,99.2742,VALID,-0.118866,VALID,19.7985,VALID,263,VALID,0.296689,
2006-04-04, 00:01:00,VALID,918.123,VALID,0,VALID,99.1699,VALID,-0.101885,VALID,19.4176,VALID,263,VALID,0.30625,
2006-04-04, 00:02:00,VALID,918.108,VALID,0,VALID,99.0567,VALID,-0.0849042,VALID,19.6763,VALID,263,VALID,0.312137,
2006-04-04, 00:03:00,VALID,918.102,VALID,0,VALID,98.9741,VALID,-0.0849042,VALID,20.0537,VALID,263,VALID,0.29794,
2006-04-04, 00:04:00,VALID,918.097,VALID,0,VALID,98.8507,VALID,-0.101885,VALID,19.1687,VALID,263,VALID,0.263477,
2006-04-04, 00:05:00,VALID,918.093,VALID,0,VALID,98.7287,VALID,-0.118866,VALID,19.5774,VALID,263,VALID,0.254925,
2006-04-04, 00:06:00,VALID,918.093,VALID,0,VALID,98.6574,VALID,-0.118866,VALID,20.6906,VALID,263,VALID,0.282366,
2006-04-04, 00:07:00,VALID,918.071,VALID,0,VALID,98.6256,VALID,-0.101885,VALID,20.0605,VALID,263,VALID,0.159961,
2006-04-04, 00:08:00,VALID,918.044,VALID,0,VALID,98.7172,VALID,-0.101885,VALID,20.0003,VALID,263,VALID,0.133929,
2006-04-04, 00:09:00,VALID,918.014,VALID,0,VALID,98.8329,VALID,-0.101885,VALID,21.0667,VALID,263,VALID,0.0756944,
2006-04-04, 00:10:00,VALID,917.975,VALID,0,VALID,98.9359,VALID,-0.0849042,VALID,20.3962,VALID,263,VALID,0,
2006-04-04, 00:11:00,VALID,917.947,VALID,0,VALID,98.9308,VALID,0,VALID,20.0816,VALID,263,VALID,0.0767045,
2006-04-04, 00:12:00,VALID,917.928,VALID,0,VALID,98.9283,VALID,-0.0169808,VALID,19.2714,VALID,263,VALID,0.0545058,
2006-04-04, 00:13:00,VALID,917.917,VALID,0,VALID,98.9677,VALID,-0.0849042,VALID,20.3312,VALID,263,VALID,0.0511533,
2006-04-04, 00:14:00,VALID,917.919,VALID,0,VALID,98.7287,VALID,-0.101885,VALID,19.9914,VALID,356,VALID,0.492378,
2006-04-04, 00:15:00,VALID,917.909,VALID,0,VALID,98.487,VALID,-0.101885,VALID,21.0658,VALID,20,VALID,0.250186,
2006-04-04, 00:16:00,VALID,917.914,VALID,0,VALID,98.454,VALID,-0.0849042,VALID,19.1653,VALID,16,VALID,0.401228,
2006-04-04, 00:17:00,VALID,917.911,VALID,0,VALID,98.2989,VALID,-0.118866,VALID,19.7369,VALID,10,VALID,0.283727,
2006-04-04, 00:18:00,VALID,917.896,VALID,0,VALID,98.1513,VALID,-0.101885,VALID,20.0808,VALID,10,VALID,0.350675,
2006-04-04, 00:19:00,VALID,917.883,VALID,0,VALID,98.3891,VALID,-0.101885,VALID,19.8383,VALID,7,VALID,0.458079,
2006-04-04, 00:20:00,VALID,917.865,VALID,0,VALID,98.5646,VALID,-0.101885,VALID,20.5935,VALID,6,VALID,0.144354,
2006-04-04, 00:21:00,VALID,917.852,VALID,0,VALID,98.5989,VALID,-0.101885,VALID,20.4622,VALID,6,VALID,0,
2006-04-04, 00:22:00,VALID,917.854,VALID,0,VALID,98.4413,VALID,-0.0849042,VALID,19.7601,VALID,6,VALID,0,
2006-04-04, 00:23:00,VALID,917.857,VALID,0,VALID,98.3777,VALID,-0.101885,VALID,20.684,VALID,6,VALID,0.0172991,
2006-04-04, 00:24:00,VALID,917.854,VALID,0,VALID,98.3942,VALID,-0.0849042,VALID,20.7916,VALID,6,VALID,0.0398065,
2006-04-04, 00:25:00,VALID,917.848,VALID,0,VALID,98.0102,VALID,-0.0849042,VALID,20.9058,VALID,6,VALID,0.179888,
2006-04-04, 00:26:00,VALID,917.818,VALID,0,VALID,98.0636,VALID,-0.101885,VALID,19.7006,VALID,6,VALID,0.105646,
2006-04-04, 00:27:00,VALID,917.81,VALID,0,VALID,98.1552,VALID,-0.101885,VALID,20.7007,VALID,6,VALID,0.206836,
2006-04-04, 00:28:00,VALID,917.802,VALID,0,VALID,98.3751,VALID,-0.101885,VALID,19.9511,VALID,284,VALID,0.66183,
2006-04-04, 00:29:00,VALID,917.781,VALID,0,VALID,98.8126,VALID,-0.101885,VALID,19.6395,VALID,260,VALID,0.580124,
2006-04-04, 00:30:00,VALID,917.76,VALID,0,VALID,99.0389,VALID,-0.101885,VALID,20.0923,VALID,260,VALID,0.426897,
2006-04-04, 00:31:00,VALID,917.718,VALID,0,VALID,99.0898,VALID,-0.101885,VALID,19.8333,VALID,260,VALID,0.388184,
2006-04-04, 00:32:00,VALID,917.687,VALID,0,VALID,98.8622,VALID,-0.0849042,VALID,20.9757,VALID,272,VALID,0.332485,
2006-04-04, 00:33:00,VALID,917.669,VALID,0,VALID,98.4044,VALID,0,VALID,19.5229,VALID,288,VALID,0.501674,
2006-04-04, 00:34:00,VALID,917.682,VALID,0,VALID,97.953,VALID,-0.0169808,VALID,20.1828,VALID,341,VALID,0.688542,
2006-04-04, 00:35:00,VALID,917.687,VALID,0,VALID,98.1183,VALID,-0.118866,VALID,20.8421,VALID,348,VALID,0.587028,
2006-04-04, 00:36:00,VALID,917.693,VALID,0,VALID,98.585,VALID,-0.101885,VALID,19.7876,VALID,345,VALID,0.484189,
2006-04-04, 00:37:00,VALID,917.706,VALID,0,VALID,98.66,VALID,-0.101885,VALID,20.2372,VALID,345,VALID,0.477983,
2006-04-04, 00:38:00,VALID,917.714,VALID,0,VALID,98.4222,VALID,-0.101885,VALID,20.1504,VALID,343,VALID,0.708841,
2006-04-04, 00:39:00,VALID,917.721,VALID,0,VALID,98.3561,VALID,-0.101885,VALID,19.8704,VALID,337,VALID,0.329688,
2006-04-04, 00:40:00,VALID,917.702,VALID,0,VALID,98.3904,VALID,-0.101885,VALID,20.3918,VALID,337,VALID,0.151972,
2006-04-04, 00:41:00,VALID,917.665,VALID,0,VALID,98.4057,VALID,-0.0679233,VALID,20.2554,VALID,337,VALID,0.170987,
2006-04-04, 00:42:00,VALID,917.646,VALID,0,VALID,98.5583,VALID,-0.101885,VALID,18.003,VALID,337,VALID,0.310138,
2006-04-04, 00:43:00,VALID,917.62,VALID,0,VALID,98.6409,VALID,-0.0849042,VALID,21.2133,VALID,339,VALID,0.354167,
2006-04-04, 00:44:00,VALID,917.593,VALID,0,VALID,98.7274,VALID,-0.101885,VALID,19.7746,VALID,4,VALID,0.954215,
2006-04-04, 00:45:00,VALID,917.589,VALID,0,VALID,98.6752,VALID,-0.118866,VALID,19.4311,VALID,2,VALID,0.74535,
2006-04-04, 00:46:00,VALID,917.594,VALID,0,VALID,98.6613,VALID,-0.0849042,VALID,20.9492,VALID,327,VALID,1.0427,
2006-04-04, 00:47:00,VALID,917.611,VALID,0,VALID,98.9118,VALID,-0.0849042,VALID,19.8905,VALID,312,VALID,0.575763,
2006-04-04, 00:48:00,VALID,917.624,VALID,0,VALID,99.147,VALID,-0.101885,VALID,19.2853,VALID,310,VALID,0.381138,
2006-04-04, 00:49:00,VALID,917.642,VALID,0,VALID,99.25,VALID,-0.101885,VALID,20.273,VALID,309,VALID,0.291424,
2006-04-04, 00:50:00,VALID,917.646,VALID,0,VALID,99.2169,VALID,-0.101885,VALID,21.4378,VALID,308,VALID,0.259943,
2006-04-04, 00:51:00,VALID,917.643,VALID,0,VALID,99.1165,VALID,-0.101885,VALID,21.1662,VALID,340,VALID,0.56436,
2006-04-04, 00:52:00,VALID,917.659,VALID,0,VALID,99.1496,VALID,-0.101885,VALID,19.7276,VALID,354,VALID,0.640625,
2006-04-04, 00:53:00,VALID,917.656,VALID,0,VALID,98.8431,VALID,-0.101885,VALID,20.0482,VALID,351,VALID,0.931362,
2006-04-04, 00:54:00,VALID,917.645,VALID,0,VALID,98.6918,VALID,-0.101885,VALID,19.6376,VALID,5,VALID,0.820652,
2006-04-04, 00:55:00,VALID,917.654,VALID,0,VALID,98.4171,VALID,-0.118866,VALID,20.703,VALID,7,VALID,0.829861,
2006-04-04, 00:56:00,VALID,917.654,VALID,0,VALID,98.1882,VALID,-0.0509425,VALID,21.201,VALID,344,VALID,0.697545,
2006-04-04, 00:57:00,VALID,917.651,VALID,0,VALID,98.1056,VALID,-0.118866,VALID,20.6321,VALID,325,VALID,0.410069,
2006-04-04, 00:58:00,VALID,917.642,VALID,0,VALID,98.2772,VALID,-0.169808,VALID,20.8136,VALID,325,VALID,0.120722,
2006-04-04, 00:59:00,VALID,917.638,VALID,0,VALID,98.4375,VALID,-0.169808,VALID,20.1859,VALID,325,VALID,0.1375,
2006-04-04, 01:00:00,VALID,917.62,VALID,0,VALID,98.3828,VALID,-0.0509425,VALID,20.2438,VALID,325,VALID,0.25093,
2006-04-04, 01:01:00,VALID,917.622,VALID,0,VALID,98.3726,VALID,-0.0849042,VALID,20.5889,VALID,326,VALID,0.277876,
2006-04-04, 01:02:00,VALID,917.614,VALID,0,VALID,98.0204,VALID,-0.0849042,VALID,21.0914,VALID,316,VALID,1.10774,
2006-04-04, 01:03:00,VALID,917.602,VALID,0,VALID,97.6986,VALID,-0.0679233,VALID,19.6255,VALID,326,VALID,0.983422,
2006-04-04, 01:04:00,VALID,917.602,VALID,0,VALID,97.5219,VALID,-0.0849042,VALID,21.2349,VALID,338,VALID,0.647711,
2006-04-04, 01:05:00,VALID,917.616,VALID,0,VALID,97.5626,VALID,-0.118866,VALID,19.1613,VALID,349,VALID,0.431021,
2006-04-04, 01:06:00,VALID,917.625,VALID,0,VALID,97.4748,VALID,-0.186789,VALID,20.1431,VALID,322,VALID,0.202035,
2006-04-04, 01:07:00,VALID,917.635,VALID,0,VALID,97.5651,VALID,-0.20377,VALID,20.4252,VALID,322,VALID,0.148785,
2006-04-04, 01:08:00,VALID,917.629,VALID,0,VALID,97.6719,VALID,-0.20377,VALID,21.0223,VALID,322,VALID,0.334449,
2006-04-04, 01:09:00,VALID,917.631,VALID,0,VALID,97.8741,VALID,-0.186789,VALID,21.4701,VALID,322,VALID,0.227273,
2006-04-04, 01:10:00,VALID,917.646,VALID,0,VALID,98.1475,VALID,-0.0679233,VALID,20.5458,VALID,322,VALID,0.294744,
2006-04-04, 01:11:00,VALID,917.657,VALID,0,VALID,98.2887,VALID,-0.101885,VALID,19.878,VALID,326,VALID,0.460321,
2006-04-04, 01:12:00,VALID,917.675,VALID,0,VALID,98.0839,VALID,-0.101885,VALID,19.7555,VALID,347,VALID,0.494673,
2006-04-04, 01:13:00,VALID,917.69,VALID,0,VALID,97.9275,VALID,-0.0509425,VALID,21.9241,VALID,347,VALID,0.433333,
2006-04-04, 01:14:00,VALID,917.689,VALID,0,VALID,97.9339,VALID,-0.0509425,VALID,19.9326,VALID,347,VALID,0.226563,
2006-04-04, 01:15:00,VALID,917.675,VALID,0,VALID,98.0547,VALID,-0.0679233,VALID,21.13,VALID,347,VALID,0.30506,
2006-04-04, 01:16:00,VALID,917.668,VALID,0,VALID,98.2594,VALID,-0.0849042,VALID,20.7873,VALID,344,VALID,0.385719,
2006-04-04, 01:17:00,VALID,917.659,VALID,0,VALID,98.4247,VALID,-0.101885,VALID,20.3895,VALID,323,VALID,0.488477,
2006-04-04, 01:18:00,VALID,917.658,VALID,0,VALID,98.6142,VALID,-0.118866,VALID,20.1859,VALID,318,VALID,0.434766,
2006-04-04, 01:19:00,VALID,917.66,VALID,0,VALID,98.7503,VALID,-0.101885,VALID,21.2494,VALID,318,VALID,0.53776,
2006-04-04, 01:20:00,VALID,917.65,VALID,0,VALID,98.8418,VALID,-0.169808,VALID,20.1055,VALID,286,VALID,0.565739,
2006-04-04, 01:21:00,VALID,917.656,VALID,0,VALID,99.0377,VALID,-0.118866,VALID,20.2922,VALID,238,VALID,0.662946,
2006-04-04, 01:22:00,VALID,917.653,VALID,0,VALID,99.1966,VALID,-0.0849042,VALID,20.339,VALID,233,VALID,0.25,
2006-04-04, 01:23:00,VALID,917.66,VALID,0,VALID,99.3683,VALID,-0.0339617,VALID,20.2386,VALID,233,VALID,0.216933,
2006-04-04, 01:24:00,VALID,917.64,VALID,0,VALID,99.4306,VALID,-0.101885,VALID,20.7724,VALID,233,VALID,0.0466747,
2006-04-04, 01:25:00,VALID,917.627,VALID,0,VALID,99.4687,VALID,-0.0169808,VALID,21.0537,VALID,233,VALID,0.0512576,
2006-04-04, 01:26:00,VALID,917.596,VALID,0,VALID,99.4115,VALID,-0.101885,VALID,19.8714,VALID,233,VALID,0,
2006-04-04, 01:27:00,VALID,917.576,VALID,0,VALID,99.484,VALID,-0.101885,VALID,20.3866,VALID,233,VALID,0,
2006-04-04, 01:28:00,VALID,917.524,VALID,0,VALID,99.4992,VALID,-0.0169808,VALID,20.3436,VALID,233,VALID,0,
2006-04-04, 01:29:00,VALID,917.503,VALID,0,VALID,99.4611,VALID,0,VALID,20.8713,VALID,233,VALID,0,
2006-04-04, 01:30:00,VALID,917.483,VALID,0,VALID,99.3225,VALID,-0.0339617,VALID,20.847,VALID,233,VALID,0.0199855,
2006-04-04, 01:31:00,VALID,917.463,VALID,0,VALID,99.2462,VALID,-0.101885,VALID,19.5232,VALID,233,VALID,0.0400152,
2006-04-04, 01:32:00,VALID,917.444,VALID,0,VALID,99.1635,VALID,-0.101885,VALID,21.2319,VALID,233,VALID,0,
2006-04-04, 01:33:00,VALID,917.431,VALID,0,VALID,99.1852,VALID,-0.135847,VALID,20.1554,VALID,233,VALID,0,
2006-04-04, 01:34:00,VALID,917.424,VALID,0,VALID,99.2411,VALID,-0.101885,VALID,19.9946,VALID,233,VALID,0,
2006-04-04, 01:35:00,VALID,917.425,VALID,0,VALID,99.1546,VALID,-0.0169808,VALID,20.1997,VALID,233,VALID,0,
2006-04-04, 01:36:00,VALID,917.432,VALID,0,VALID,98.9207,VALID,-0.101885,VALID,20.2942,VALID,233,VALID,0.0301339,
2006-04-04, 01:37:00,VALID,917.423,VALID,0,VALID,98.777,VALID,-0.101885,VALID,20.5486,VALID,233,VALID,0.0228924,
2006-04-04, 01:38:00,VALID,917.407,VALID,0,VALID,98.9041,VALID,-0.135847,VALID,20.0881,VALID,233,VALID,0.0012718,
2006-04-04, 01:39:00,VALID,917.388,VALID,0,VALID,98.9067,VALID,-0.118866,VALID,19.9627,VALID,233,VALID,0,
2006-04-04, 01:40:00,VALID,917.369,VALID,0,VALID,98.9029,VALID,-0.101885,VALID,20.0187,VALID,233,VALID,0.0895579,
2006-04-04, 01:41:00,VALID,917.346,VALID,0,VALID,98.791,VALID,-0.0679233,VALID,20.0134,VALID,233,VALID,0.223772,
2006-04-04, 01:42:00,VALID,917.346,VALID,0,VALID,98.6981,VALID,-0.0679233,VALID,20.9033,VALID,233,VALID,0.0111607,
2006-04-04, 01:43:00,VALID,917.343,VALID,0,VALID,98.5227,VALID,-0.0679233,VALID,20.0437,VALID,233,VALID,0.0855741,
2006-04-04, 01:44:00,VALID,917.35,VALID,0,VALID,98.3561,VALID,-0.152827,VALID,20.9314,VALID,233,VALID,0.0078125,
2006-04-04, 01:45:00,VALID,917.344,VALID,0,VALID,98.2378,VALID,-0.0849042,VALID,20.5133,VALID,233,VALID,0,
2006-04-04, 01:46:00,VALID,917.329,VALID,0,VALID,98.1704,VALID,-0.0509425,VALID,20.8689,VALID,233,VALID,0,
2006-04-04, 01:47:00,VALID,917.321,VALID,0,VALID,98.2454,VALID,-0.0849042,VALID,20.2821,VALID,233,VALID,0,
2006-04-04, 01:48:00,VALID,917.327,VALID,0,VALID,98.351,VALID,-0.0339617,VALID,21.1388,VALID,233,VALID,0,
2006-04-04, 01:49:00,VALID,917.322,VALID,0,VALID,98.3586,VALID,-0.0509425,VALID,20.9597,VALID,233,VALID,0,
2006-04-04, 01:50:00,VALID,917.31,VALID,0,VALID,98.3968,VALID,-0.169808,VALID,19.8602,VALID,233,VALID,0.167333,
2006-04-04, 01:51:00,VALID,917.298,VALID,0,VALID,98.482,VALID,-0.101885,VALID,20.1446,VALID,232,VALID,0.380035,
2006-04-04, 01:52:00,VALID,917.277,VALID,0,VALID,98.5074,VALID,-0.0849042,VALID,19.765,VALID,232,VALID,0.364757,
2006-04-04, 01:53:00,VALID,917.259,VALID,0,VALID,98.6511,VALID,-0.0679233,VALID,20.8416,VALID,232,VALID,0.262847,
2006-04-04, 01:54:00,VALID,917.228,VALID,0,VALID,98.8431,VALID,-0.0509425,VALID,20.7701,VALID,232,VALID,0.226744,
2006-04-04, 01:55:00,VALID,917.207,VALID,0,VALID,98.9346,VALID,-0.101885,VALID,20.9607,VALID,232,VALID,0.0243902,
2006-04-04, 01:56:00,VALID,917.201,VALID,0,VALID,98.997,VALID,-0.118866,VALID,20.7933,VALID,232,VALID,0.144631,
2006-04-04, 01:57:00,VALID,917.201,VALID,0,VALID,98.9995,VALID,-0.101885,VALID,20.1365,VALID,232,VALID,0.261161,
2006-04-04, 01:58:00,VALID,917.217,VALID,0,VALID,99.016,VALID,-0.0679233,VALID,20.6948,VALID,232,VALID,0.246007,
2006-04-04, 01:59:00,VALID,917.209,VALID,0,VALID,99.03,VALID,-0.101885,VALID,19.8456,VALID,232,VALID,0.0134943,
2006-04-04, 02:00:00,VALID,917.209,VALID,0,VALID,99.0771,VALID,-0.101885,VALID,20.6993,VALID,232,VALID,0.00136719,
2006-04-04, 02:01:00,VALID,917.182,VALID,0,VALID,99.0898,VALID,-0.118866,VALID,20.492,VALID,232,VALID,0,
2006-04-04, 02:02:00,VALID,917.167,VALID,0,VALID,99.0453,VALID,-0.101885,VALID,19.9063,VALID,232,VALID,0,
2006-04-04, 02:03:00,VALID,917.162,VALID,0,VALID,98.983,VALID,-0.101885,VALID,20.1705,VALID,232,VALID,0,
2006-04-04, 02:04:00,VALID,917.146,VALID,0,VALID,98.7147,VALID,-0.101885,VALID,20.5328,VALID,232,VALID,0,
2006-04-04, 02:05:00,VALID,917.132,VALID,0,VALID,98.5799,VALID,-0.118866,VALID,19.709,VALID,232,VALID,0,
2006-04-04, 02:06:00,VALID,917.129,VALID,0,VALID,98.585,VALID,-0.101885,VALID,21.3428,VALID,232,VALID,0,
2006-04-04, 02:07:00,VALID,917.123,VALID,0,VALID,98.6256,VALID,-0.101885,VALID,19.8113,VALID,232,VALID,0,
2006-04-04, 02:08:00,VALID,917.127,VALID,0,VALID,98.6295,VALID,-0.101885,VALID,20.1337,VALID,232,VALID,0,
2006-04-04, 02:09:00,VALID,917.122,VALID,0,VALID,98.6333,VALID,-0.135847,VALID,20.1652,VALID,232,VALID,0,
2006-04-04, 02:10:00,VALID,917.103,VALID,0,VALID,98.6256,VALID,-0.101885,VALID,19.0928,VALID,232,VALID,0,
2006-04-04, 02:11:00,VALID,917.103,VALID,0,VALID,98.5583,VALID,-0.101885,VALID,20.4934,VALID,232,VALID,0,
2006-04-04, 02:12:00,VALID,917.093,VALID,0,VALID,98.2709,VALID,-0.152827,VALID,20.135,VALID,232,VALID,0,
2006-04-04, 02:13:00,VALID,917.088,VALID,0,VALID,98.2327,VALID,-0.118866,VALID,20.4206,VALID,232,VALID,0,
2006-04-04, 02:14:00,VALID,917.091,VALID,0,VALID,98.2353,VALID,-0.0849042,VALID,20.4443,VALID,232,VALID,0,
2006-04-04, 02:15:00,VALID,917.091,VALID,0,VALID,98.2073,VALID,-0.101885,VALID,20.3576,VALID,232,VALID,0,
2006-04-04, 02:16:00,VALID,917.101,VALID,0,VALID,98.2836,VALID,-0.101885,VALID,19.727,VALID,232,VALID,0,
2006-04-04, 02:17:00,VALID,917.097,VALID,0,VALID,98.3815,VALID,-0.118866,VALID,20.4629,VALID,232,VALID,0,
2006-04-04, 02:18:00,VALID,917.093,VALID,0,VALID,98.4807,VALID,-0.101885,VALID,21.4054,VALID,232,VALID,0,
2006-04-04, 02:19:00,VALID,917.092,VALID,0,VALID,98.5722,VALID,-0.118866,VALID,19.6319,VALID,232,VALID,0,
2006-04-04, 02:20:00,VALID,917.071,VALID,0,VALID,98.5633,VALID,-0.118866,VALID,19.9289,VALID,232,VALID,0,
2006-04-04, 02:21:00,VALID,917.052,VALID,0,VALID,98.482,VALID,-0.101885,VALID,20.8248,VALID,232,VALID,0,
2006-04-04, 02:22:00,VALID,917.018,VALID,0,VALID,98.426,VALID,-0.118866,VALID,20.2592,VALID,232,VALID,0,
2006-04-04, 02:23:00,VALID,916.983,VALID,0,VALID,98.3688,VALID,-0.101885,VALID,19.2386,VALID,232,VALID,0,
2006-04-04, 02:24:00,VALID,916.948,VALID,0,VALID,98.3421,VALID,-0.101885,VALID,20.0201,VALID,232,VALID,0.224382,
2006-04-04, 02:25:00,VALID,916.916,VALID,0,VALID,98.4133,VALID,-0.101885,VALID,20.6958,VALID,232,VALID,0.169876,
2006-04-04, 02:26:00,VALID,916.91,VALID,0,VALID,98.4146,VALID,-0.101885,VALID,21.0636,VALID,232,VALID,0.200521,
2006-04-04, 02:27:00,VALID,916.917,VALID,0,VALID,98.3586,VALID,-0.101885,VALID,19.9303,VALID,233,VALID,0.375545,
2006-04-04, 02:28:00,VALID,916.924,VALID,0,VALID,98.3294,VALID,-0.118866,VALID,19.6221,VALID,288,VALID,0.437153,
2006-04-04, 02:29:00,VALID,916.922,VALID,0,VALID,98.4718,VALID,-0.118866,VALID,19.1637,VALID,300,VALID,0.353198,
2006-04-04, 02:30:00,VALID,916.925,VALID,0,VALID,98.5888,VALID,-0.101885,VALID,19.981,VALID,300,VALID,0.374273,
2006-04-04, 02:31:00,VALID,916.918,VALID,0,VALID,98.6943,VALID,-0.101885,VALID,19.7021,VALID,300,VALID,0.235609,
2006-04-04, 02:32:00,VALID,916.912,VALID,0,VALID,98.8304,VALID,-0.0849042,VALID,19.9651,VALID,300,VALID,0.0293899,
2006-04-04, 02:33:00,VALID,916.927,VALID,0,VALID,99.0237,VALID,-0.118866,VALID,20.4675,VALID,300,VALID,0.0210756,
2006-04-04, 02:34:00,VALID,916.938,VALID,0,VALID,99.1127,VALID,-0.101885,VALID,20.5626,VALID,300,VALID,0.0871804,
2006-04-04, 02:35:00,VALID,916.966,VALID,0,VALID,99.0555,VALID,-0.118866,VALID,20.502,VALID,300,VALID,0.183008,
2006-04-04, 02:36:00,VALID,916.971,VALID,0,VALID,98.8469,VALID,-0.118866,VALID,19.9896,VALID,300,VALID,0.344151,
2006-04-04, 02:37:00,VALID,916.986,VALID,0,VALID,98.721,VALID,-0.118866,VALID,20.1793,VALID,303,VALID,0.574505,
2006-04-04, 02:38:00,VALID,916.993,VALID,0,VALID,98.6244,VALID,-0.101885,VALID,19.023,VALID,314,VALID,0.582919,
2006-04-04, 02:39:00,VALID,916.979,VALID,0,VALID,98.7973,VALID,-0.152827,VALID,19.8895,VALID,317,VALID,0.408736,
2006-04-04, 02:40:00,VALID,916.969,VALID,0,VALID,98.9906,VALID,-0.101885,VALID,19.4093,VALID,317,VALID,0.16441,
2006-04-04, 02:41:00,VALID,916.962,VALID,0,VALID,99.1228,VALID,-0.0339617,VALID,20.3119,VALID,317,VALID,0.295015,
2006-04-04, 02:42:00,VALID,916.967,VALID,0,VALID,99.3085,VALID,-0.0339617,VALID,18.5442,VALID,317,VALID,0.289063,
2006-04-04, 02:43:00,VALID,916.947,VALID,0,VALID,99.2042,VALID,-0.118866,VALID,19.1902,VALID,317,VALID,0.172805,
2006-04-04, 02:44:00,VALID,916.943,VALID,0,VALID,99.2309,VALID,-0.118866,VALID,19.7404,VALID,317,VALID,0.126524,
2006-04-04, 02:45:00,VALID,916.929,VALID,0,VALID,99.1381,VALID,-0.101885,VALID,20.1178,VALID,317,VALID,0.115278,
2006-04-04, 02:46:00,VALID,916.913,VALID,0,VALID,99.5463,VALID,-0.135847,VALID,19.5114,VALID,317,VALID,0.13941,
2006-04-04, 02:47:00,VALID,916.894,VALID,0,VALID,99.7587,VALID,-0.135847,VALID,19.6395,VALID,317,VALID,0,
2006-04-04, 02:48:00,VALID,916.885,VALID,0,VALID,99.8604,VALID,-0.101885,VALID,19.6999,VALID,317,VALID,0,
2006-04-04, 02:49:00,VALID,916.89,VALID,0,VALID,99.8006,VALID,-0.135847,VALID,19.1702,VALID,317,VALID,0,
2006-04-04, 02:50:00,VALID,916.889,VALID,0,VALID,99.7319,VALID,-0.101885,VALID,20.3941,VALID,317,VALID,0,
2006-04-04, 02:51:00,VALID,916.893,VALID,0,VALID,99.6785,VALID,-0.0169808,VALID,20.0119,VALID,317,VALID,0,
2006-04-04, 02:52:00,VALID,916.886,VALID,0,VALID,99.6633,VALID,-0.0679233,VALID,19.8804,VALID,317,VALID,0,
2006-04-04, 02:53:00,VALID,916.875,VALID,0,VALID,99.3734,VALID,-0.0509425,VALID,20.1987,VALID,317,VALID,0,
2006-04-04, 02:54:00,VALID,916.848,VALID,0,VALID,99.1763,VALID,-0.118866,VALID,19.3443,VALID,317,VALID,0,
2006-04-04, 02:55:00,VALID,916.845,VALID,0,VALID,98.59,VALID,-0.0169808,VALID,20.1671,VALID,317,VALID,0.10026,
2006-04-04, 02:56:00,VALID,916.831,VALID,0,VALID,98.3675,VALID,-0.0679233,VALID,17.9375,VALID,317,VALID,0.0751065,
2006-04-04, 02:57:00,VALID,916.815,VALID,0,VALID,98.5176,VALID,-0.101885,VALID,19.5548,VALID,317,VALID,0.30485,
2006-04-04, 02:58:00,VALID,916.793,VALID,0,VALID,98.7757,VALID,-0.101885,VALID,19.703,VALID,317,VALID,0.420541,
2006-04-04, 02:59:00,VALID,916.785,VALID,0,VALID,99.0287,VALID,-0.135847,VALID,19.1025,VALID,317,VALID,0.407366,
2006-04-04, 03:00:00,VALID,916.779,VALID,0,VALID,99.4115,VALID,-0.101885,VALID,20.0196,VALID,317,VALID,0.464177,
2006-04-04, 03:01:00,VALID,916.751,VALID,0,VALID,99.4128,VALID,-0.0169808,VALID,20.4735,VALID,317,VALID,0.440225,
2006-04-04, 03:02:00,VALID,916.73,VALID,0,VALID,99.4102,VALID,-0.0509425,VALID,19.3958,VALID,317,VALID,0.508789,
2006-04-04, 03:03:00,VALID,916.691,VALID,0,VALID,99.5399,VALID,-0.118866,VALID,20.5461,VALID,317,VALID,0.533668,
2006-04-04, 03:04:00,VALID,916.647,VALID,0,VALID,99.7879,VALID,-0.0509425,VALID,20.7181,VALID,340,VALID,0.684338,
2006-04-04, 03:05:00,VALID,916.626,VALID,0,VALID,99.8833,VALID,-0.0339617,VALID,20.1239,VALID,9,VALID,0.957849,
2006-04-04, 03:06:00,VALID,916.592,VALID,0,VALID,99.84,VALID,-0.0849042,VALID,18.5394,VALID,10,VALID,0.795422,
2006-04-04, 03:07:00,VALID,916.593,VALID,0,VALID,99.7421,VALID,-0.0509425,VALID,19.9535,VALID,10,VALID,0.776736,
2006-04-04, 03:08:00,VALID,916.608,VALID,0,VALID,99.6493,VALID,-0.0679233,VALID,20.7311,VALID,10,VALID,0.340745,
2006-04-04, 03:09:00,VALID,916.626,VALID,0,VALID,99.7154,VALID,-0.0679233,VALID,19.4435,VALID,10,VALID,0.230469,
2006-04-04, 03:10:00,VALID,916.632,VALID,0,VALID,99.8998,VALID,-0.118866,VALID,19.6439,VALID,4,VALID,0.420967,
2006-04-04, 03:11:00,VALID,916.651,VALID,0,VALID,100,VALID,-0.20377,VALID,20.2367,VALID,352,VALID,0.363621,
2006-04-04, 03:12:00,VALID,916.663,VALID,0,VALID,100,VALID,-0.186789,VALID,19.013,VALID,352,VALID,0.141335,
2006-04-04, 03:13:00,VALID,916.651,VALID,0,VALID,99.9738,VALID,-0.0509425,VALID,19.7354,VALID,352,VALID,0.00390625,
2006-04-04, 03:14:00,VALID,916.64,VALID,0,VALID,99.4471,VALID,-0.0679233,VALID,18.7986,VALID,352,VALID,0.0495924,
2006-04-04, 03:15:00,VALID,916.625,VALID,0,VALID,99.2793,VALID,-0.0509425,VALID,20.0613,VALID,352,VALID,0,
2006-04-04, 03:16:00,VALID,916.632,VALID,0,VALID,99.2767,VALID,-0.0509425,VALID,19.1039,VALID,352,VALID,0.0423018,
2006-04-04, 03:17:00,VALID,916.656,VALID,0,VALID,99.4191,VALID,-0.101885,VALID,19.7375,VALID,352,VALID,0.368924,
2006-04-04, 03:18:00,VALID,916.67,VALID,0,VALID,99.8736,VALID,-0.0849042,VALID,19.033,VALID,351,VALID,0.644431,
2006-04-04, 03:19:00,VALID,916.694,VALID,0,VALID,100,VALID,-0.0339617,VALID,19.2862,VALID,347,VALID,0.611919,
2006-04-04, 03:20:00,VALID,916.697,VALID,0,VALID,100,VALID,-0.0509425,VALID,19.4423,VALID,344,VALID,0.307351,
2006-04-04, 03:21:00,VALID,916.681,VALID,0,VALID,100,VALID,-0.0849042,VALID,19.8786,VALID,344,VALID,0.333097,
2006-04-04, 03:22:00,VALID,916.662,VALID,0,VALID,100,VALID,-0.0679233,VALID,20.7011,VALID,344,VALID,0.163318,
2006-04-04, 03:23:00,VALID,916.632,VALID,0,VALID,100,VALID,-0.0679233,VALID,20.0503,VALID,344,VALID,0.0982921,
2006-04-04, 03:24:00,VALID,916.621,VALID,0,VALID,100,VALID,-0.0509425,VALID,19.9917,VALID,340,VALID,0.720084,
2006-04-04, 03:25:00,VALID,916.637,VALID,0,VALID,100,VALID,-0.0509425,VALID,19.7478,VALID,338,VALID,0.186166,
2006-04-04, 03:26:00,VALID,916.653,VALID,0,VALID,100,VALID,-0.0509425,VALID,19.8687,VALID,338,VALID,0.186257,
2006-04-04, 03:27:00,VALID,916.657,VALID,0,VALID,100,VALID,-0.101885,VALID,19.5849,VALID,334,VALID,0.475419,
2006-04-04, 03:28:00,VALID,916.649,VALID,0,VALID,100,VALID,-0.0509425,VALID,19.3692,VALID,328,VALID,0.417515,
2006-04-04, 03:29:00,VALID,916.641,VALID,0,VALID,100,VALID,-0.0679233,VALID,18.708,VALID,242,VALID,0.478468,
2006-04-04, 03:30:00,VALID,916.646,VALID,0,VALID,100,VALID,-0.101885,VALID,19.4738,VALID,235,VALID,0.191883,
2006-04-04, 03:31:00,VALID,916.665,VALID,0,VALID,100,VALID,-0.0679233,VALID,19.9014,VALID,235,VALID,0.117361,
2006-04-04, 03:32:00,VALID,916.666,VALID,0,VALID,100,VALID,-0.101885,VALID,18.9199,VALID,235,VALID,0.15189,
2006-04-04, 03:33:00,VALID,916.667,VALID,0,VALID,100,VALID,-0.20377,VALID,19.3526,VALID,258,VALID,0.359028,